• în România
  • Lista ţărilor
  • Pe 7 zile
  • Temperatura apei
  • Hartă satelitară
  • Meteo pe hartă
  • Widget-uri
  • user-avatar
    Intrare

    Meteo pe oră la Polunino

    Astăzi, 23 Septembrie, Duminică

    Timp Temperatura Precipitaţii Vânt Presiune Umiditate
    00:00 +19°C° 0 mm 6 m/s 739 mmHg 55%
    01:00 +19°C° 0 mm 6 m/s 738 mmHg 55%
    02:00 +19°C° 0 mm 6 m/s 738 mmHg 54%
    03:00 +17°C° 0 mm 6 m/s 737 mmHg 54%
    04:00 +17°C° 0 mm 6 m/s 737 mmHg 56%
    05:00 +17°C° 0 mm 6 m/s 737 mmHg 57%
    06:00 +16°C° 0 mm 6 m/s 736 mmHg 59%
    07:00 +16°C° 0.3 mm 6 m/s 736 mmHg 65%
    08:00 +15°C° 0.3 mm 6 m/s 736 mmHg 71%
    09:00 +14°C° 0.3 mm 6 m/s 736 mmHg 77%
    10:00 +13°C° 1 mm 6 m/s 737 mmHg 79%
    11:00 +10°C° 1 mm 6 m/s 737 mmHg 82%
    12:00 +9°C° 1 mm 5 m/s 738 mmHg 84%
    13:00 +9°C° 0.1 mm 5 m/s 738 mmHg 82%
    14:00 +10°C° 0.1 mm 5 m/s 739 mmHg 80%
    15:00 +12°C° 0.1 mm 4 m/s 739 mmHg 77%
    16:00 +12°C° 0 mm 4 m/s 739 mmHg 78%
    17:00 +11°C° 0 mm 3 m/s 739 mmHg 78%
    18:00 +11°C° 0 mm 3 m/s 739 mmHg 78%
    19:00 +11°C° 0 mm 3 m/s 739 mmHg 81%
    20:00 +10°C° 0 mm 3 m/s 739 mmHg 83%
    21:00 +9°C° 0 mm 3 m/s 739 mmHg 86%
    22:00 +9°C° 0 mm 3 m/s 739 mmHg 86%
    23:00 +9°C° 0 mm 3 m/s 739 mmHg 87%

    Mâine, 24 Septembrie, Luni

    Timp Temperatura Precipitaţii Vânt Presiune Umiditate
    00:00 +8°C° 0 mm 3 m/s 739 mmHg 88%
    01:00 +8°C° 0 mm 3 m/s 739 mmHg 89%
    02:00 +8°C° 0 mm 3 m/s 739 mmHg 90%
    03:00 +7°C° 0 mm 3 m/s 739 mmHg 91%
    04:00 +7°C° 0 mm 3 m/s 739 mmHg 91%
    05:00 +7°C° 0 mm 3 m/s 739 mmHg 91%
    06:00 +7°C° 0 mm 3 m/s 739 mmHg 90%
    07:00 +8°C° 0 mm 3 m/s 739 mmHg 85%
    08:00 +10°C° 0 mm 3 m/s 739 mmHg 80%
    09:00 +11°C° 0 mm 3 m/s 739 mmHg 75%
    10:00 +12°C° 0 mm 4 m/s 738 mmHg 71%
    11:00 +13°C° 0 mm 5 m/s 738 mmHg 66%
    12:00 +14°C° 0 mm 6 m/s 738 mmHg 62%
    13:00 +11°C° 0.6 mm 7 m/s 737 mmHg 67%
    14:00 +10°C° 0.6 mm 7 m/s 736 mmHg 73%
    15:00 +9°C° 0.6 mm 7 m/s 735 mmHg 78%
    16:00 +9°C° 1.5 mm 8 m/s 734 mmHg 81%
    17:00 +8°C° 1.5 mm 9 m/s 733 mmHg 83%
    18:00 +8°C° 1.5 mm 10 m/s 731 mmHg 86%
    19:00 +9°C° 1.6 mm 10 m/s 730 mmHg 87%
    20:00 +9°C° 1.6 mm 11 m/s 728 mmHg 87%
    21:00 +11°C° 1.6 mm 11 m/s 727 mmHg 87%
    22:00 +9°C° 0.3 mm 11 m/s 726 mmHg 86%
    23:00 +9°C° 0.3 mm 10 m/s 726 mmHg 84%

    Poimâine, 25 Septembrie, Marţi

    Timp Temperatura Precipitaţii Vânt Presiune Umiditate
    00:00 +9°C° 0.3 mm 10 m/s 725 mmHg 82%
    01:00 +8°C° 0 mm 10 m/s 726 mmHg 82%
    02:00 +7°C° 0 mm 9 m/s 726 mmHg 81%
    03:00 +7°C° 0 mm 9 m/s 727 mmHg 81%
    04:00 +6°C° 0 mm 9 m/s 727 mmHg 82%
    05:00 +6°C° 0 mm 9 m/s 728 mmHg 82%
    06:00 +6°C° 0 mm 9 m/s 728 mmHg 83%
    07:00 +6°C° 0 mm 9 m/s 729 mmHg 82%
    08:00 +7°C° 0 mm 9 m/s 729 mmHg 80%
    09:00 +7°C° 0 mm 9 m/s 730 mmHg 79%
    10:00 +7°C° 0 mm 9 m/s 731 mmHg 78%
    11:00 +7°C° 0 mm 9 m/s 731 mmHg 77%
    12:00 +7°C° 0 mm 9 m/s 732 mmHg 75%
    13:00 +7°C° 0.1 mm 9 m/s 733 mmHg 75%
    14:00 +6°C° 0.1 mm 9 m/s 734 mmHg 74%
    15:00 +6°C° 0.1 mm 9 m/s 734 mmHg 74%
    16:00 +6°C° 0.1 mm 8 m/s 735 mmHg 74%
    17:00 +6°C° 0.1 mm 8 m/s 736 mmHg 74%
    18:00 +5°C° 0.1 mm 8 m/s 736 mmHg 74%
    19:00 +5°C° 0.1 mm 8 m/s 737 mmHg 75%
    20:00 +5°C° 0.1 mm 7 m/s 737 mmHg 76%
    21:00 +4°C° 0.1 mm 7 m/s 738 mmHg 76%
    22:00 +4°C° 0.1 mm 7 m/s 738 mmHg 77%
    23:00 +4°C° 0.1 mm 6 m/s 739 mmHg 77%

    26 Septembrie, Miercuri

    Timp Temperatura Precipitaţii Vânt Presiune Umiditate
    00:00 +4°C° 0.1 mm 6 m/s 739 mmHg 78%
    01:00 +4°C° 0 mm 6 m/s 740 mmHg 78%
    02:00 +3°C° 0 mm 6 m/s 741 mmHg 78%
    03:00 +3°C° 0 mm 6 m/s 741 mmHg 78%
    04:00 +3°C° 0 mm 6 m/s 742 mmHg 78%
    05:00 +2°C° 0 mm 6 m/s 743 mmHg 77%
    06:00 +1°C° 0 mm 6 m/s 743 mmHg 77%
    07:00 +2°C° 0 mm 6 m/s 744 mmHg 74%
    08:00 +2°C° 0 mm 6 m/s 745 mmHg 71%
    09:00 +3°C° 0 mm 6 m/s 745 mmHg 68%
    10:00 +4°C° 0 mm 6 m/s 745 mmHg 64%
    11:00 +5°C° 0 mm 6 m/s 746 mmHg 59%
    12:00 +8°C° 0 mm 6 m/s 746 mmHg 55%
    13:00 +8°C° 0 mm 7 m/s 746 mmHg 54%
    14:00 +9°C° 0 mm 7 m/s 746 mmHg 53%
    15:00 +9°C° 0 mm 7 m/s 746 mmHg 52%
    16:00 +8°C° 0 mm 6 m/s 745 mmHg 56%
    17:00 +8°C° 0 mm 5 m/s 745 mmHg 60%
    18:00 +7°C° 0 mm 4 m/s 745 mmHg 64%
    19:00 +7°C° 0 mm 4 m/s 745 mmHg 65%
    20:00 +7°C° 0 mm 5 m/s 745 mmHg 66%
    21:00 +7°C° 0 mm 5 m/s 744 mmHg 68%
    22:00 +7°C° 0.1 mm 6 m/s 744 mmHg 71%
    23:00 +7°C° 0.1 mm 6 m/s 743 mmHg 74%

    27 Septembrie, Joi

    Timp Temperatura Precipitaţii Vânt Presiune Umiditate
    00:00 +6°C° 0.1 mm 7 m/s 743 mmHg 77%
    01:00 +6°C° 0.3 mm 8 m/s 742 mmHg 79%
    02:00 +6°C° 0.3 mm 8 m/s 741 mmHg 80%
    03:00 +5°C° 0.3 mm 9 m/s 741 mmHg 82%
    04:00 +5°C° 0.4 mm 9 m/s 740 mmHg 82%
    05:00 +5°C° 0.4 mm 10 m/s 739 mmHg 81%
    06:00 +5°C° 0.4 mm 10 m/s 738 mmHg 81%
    07:00 +5°C° 0.2 mm 10 m/s 738 mmHg 81%
    08:00 +5°C° 0.2 mm 10 m/s 738 mmHg 82%
    09:00 +5°C° 0.2 mm 10 m/s 737 mmHg 82%
    10:00 +6°C° 0.1 mm 10 m/s 737 mmHg 82%
    11:00 +6°C° 0.1 mm 9 m/s 737 mmHg 82%
    12:00 +7°C° 0.1 mm 9 m/s 737 mmHg 81%
    13:00 +7°C° 0.2 mm 9 m/s 736 mmHg 82%
    14:00 +7°C° 0.2 mm 9 m/s 736 mmHg 83%
    15:00 +7°C° 0.2 mm 9 m/s 736 mmHg 83%
    16:00 +7°C° 0.4 mm 9 m/s 735 mmHg 84%
    17:00 +7°C° 0.4 mm 9 m/s 735 mmHg 86%
    18:00 +7°C° 0.4 mm 9 m/s 735 mmHg 87%
    19:00 +7°C° 0.3 mm 9 m/s 734 mmHg 87%
    20:00 +7°C° 0.3 mm 8 m/s 734 mmHg 87%
    21:00 +7°C° 0.3 mm 8 m/s 734 mmHg 88%
    22:00 +7°C° 0.4 mm 8 m/s 734 mmHg 88%
    23:00 +9°C° 0.4 mm 8 m/s 733 mmHg 89%

    28 Septembrie, Vineri

    Timp Temperatura Precipitaţii Vânt Presiune Umiditate
    00:00 +9°C° 0.4 mm 7 m/s 733 mmHg 89%
    01:00 +9°C° 0.5 mm 7 m/s 733 mmHg 88%
    02:00 +9°C° 0.5 mm 7 m/s 733 mmHg 87%
    03:00 +9°C° 0.5 mm 7 m/s 733 mmHg 86%
    04:00 +8°C° 0.1 mm 6 m/s 734 mmHg 86%
    05:00 +7°C° 0.1 mm 6 m/s 734 mmHg 87%
    06:00 +7°C° 0.1 mm 6 m/s 734 mmHg 87%
    07:00 +6°C° 0 mm 7 m/s 734 mmHg 84%
    08:00 +8°C° 0 mm 7 m/s 735 mmHg 81%
    09:00 +7°C° 0 mm 8 m/s 735 mmHg 79%
    10:00 +9°C° 0 mm 8 m/s 735 mmHg 72%
    11:00 +10°C° 0 mm 8 m/s 735 mmHg 66%
    12:00 +11°C° 0 mm 8 m/s 736 mmHg 60%
    13:00 +11°C° 0 mm 8 m/s 736 mmHg 59%
    14:00 +11°C° 0 mm 7 m/s 736 mmHg 58%
    15:00 +11°C° 0 mm 7 m/s 735 mmHg 57%
    16:00 +10°C° 0 mm 6 m/s 735 mmHg 60%
    17:00 +9°C° 0 mm 5 m/s 735 mmHg 63%
    18:00 +8°C° 0 mm 4 m/s 735 mmHg 66%
    19:00 +7°C° 0 mm 4 m/s 736 mmHg 68%
    20:00 +7°C° 0 mm 4 m/s 736 mmHg 70%
    21:00 +6°C° 0 mm 5 m/s 737 mmHg 71%
    22:00 +5°C° 0 mm 5 m/s 737 mmHg 71%
    23:00 +5°C° 0 mm 5 m/s 738 mmHg 70%
    Arată mai mult